This demonstration page uses our WeatherBlox Daily Observations layout. Learn more.

Left ArrowRight Arrow

Hourly Observations for May 5, 2022

Temp ( °F °C ) Dew Point ( °F °C ) Humidity (%) Winds ( mph kmh ) Pressure ( in mb ) Visibility ( mi km ) Precip ( " mm )
12:48 am 00:48 Cloudy 55 13 54 12 94 94 NNE 8 13 29.88 1012 10 16 0.00 0.00
12:53 am 00:53 Cloudy 56 13.3 54 12.2 93 93 NE 10 17 29.87 1012 10 16 0.00 0.00
1:53 am 01:53 Cloudy 57 13.9 55 12.8 93 93 NNW 5 7 29.91 1013 10 16 0.00 0.00
2:53 am 02:53 Cloudy 55 12.8 54 12.2 96 96 NNW 10 17 29.89 1012 10 16 0.00 0.00
3:53 am 03:53 Cloudy 54 12.2 53 11.7 97 97 NNW 10 17 29.90 1012 7 11 0.00 0.00
4:53 am 04:53 Cloudy with Mist and Fog 55 12.8 54 12.2 96 96 NE 9 15 29.85 1011 6 10 0.00 0.00
5:24 am 05:24 Cloudy with Drizzle 55 12.8 54 12.2 96 96 N 9 15 29.85 1011 4 6 0.00 0.00
5:53 am 05:53 Cloudy with Drizzle 54 12.2 53 11.7 97 97 Calm 29.88 1012 4 6 0.00 0.00
6:49 am 06:49 Cloudy with Light Rain 55 13 55 13 100 100 ENE 3 6 29.87 1011 3 5 0.07 1.78
6:53 am 06:53 Cloudy with Light Rain 56 13.3 56 13.3 100 100 Calm 29.87 1012 5 8 0.07 1.78
7:48 am 07:48 Cloudy 57 14 55 13 94 94 VRB 3 6 29.87 1012 7 11 0.02 0.51
7:53 am 07:53 Cloudy 57 13.9 55 12.8 93 93 NNW 7 11 29.87 1012 7 11 0.02 0.51
8:24 am 08:24 Cloudy with Mist and Fog 56 13.3 55 12.8 97 97 NW 9 15 29.87 1012 5 8 0.00 0.00
8:49 am 08:49 Cloudy with Mist and Fog 55 13 54 12 94 94 NW 8 13 29.87 1011 5 8 0.00 0.00
8:53 am 08:53 Cloudy with Mist and Fog 55 12.8 54 12.2 96 96 NW 7 11 29.86 1011 6 10 0.00 0.00
9:00 am 09:00 Cloudy with Mist and Fog 56 13.3 55 12.8 97 97 WNW 8 13 29.88 1012 6 10 0.00 0.00
9:44 am 09:44 Cloudy with Mist and Fog 54 12.2 53 11.7 97 97 NW 12 19 29.91 1013 2 3 0.00 0.00
9:53 am 09:53 Cloudy with Drizzle 53 11.7 52 11.1 96 96 NW 12 19 29.90 1012 2 2 0.00 0.00
10:24 am 10:24 Cloudy with Drizzle 54 12.2 52 11.1 93 93 NNW 9 15 29.89 1012 3 5 0.00 0.00
10:40 am 10:40 Cloudy with Drizzle 54 12.2 52 11.1 93 93 NNW 9 15 29.88 1012 4 6 0.00 0.00
10:53 am 10:53 Cloudy with Drizzle 54 12.2 52 11.1 93 93 NNW 12 19 29.88 1012 4 6 0.00 0.00
11:17 am 11:17 Cloudy with Light Rain 54 12.2 53 11.7 97 97 NNW 8 13 29.88 1012 1 2 0.00 0.00
11:20 am 11:20 Cloudy with Light Rain 54 12.2 53 11.7 97 97 NNW 9 15 29.87 1012 2 3 0.00 0.00
11:53 am 11:53 Cloudy with Mist and Fog 57 13.9 54 12.2 90 90 N 10 17 29.84 1010 2 3 0.00 0.00
12:53 pm 12:53 Cloudy 57 13.9 54 12.2 90 90 NNE 10 17 29.83 1010 2 3 0.00 0.00
1:13 pm 13:13 Cloudy with Mist and Fog 56 13.3 54 12.2 93 93 NNE 9 15 29.83 1010 1 2 0.00 0.00
1:51 pm 13:51 Cloudy with Strong Thunderstorms 55 13 54 12 94 94 WNW 16 26 29.87 1011 1 1 0.02 0.51
1:53 pm 13:53 Cloudy with Strong Thunderstorms 55 12.8 54 12.2 96 96 WNW 21 33 29.86 1011 1 1 0.05 1.27
2:17 pm 14:17 Cloudy with Thunderstorms 54 12.2 52 11.1 93 93 NNW 24 39 29.84 1011 2 3 0.30 7.62
2:27 pm 14:27 Cloudy with Thunderstorms 54 12.2 51 10.6 90 90 NNW 17 28 29.85 1011 5 8 0.31 7.87
2:53 pm 14:53 Cloudy with Thunderstorms 53 11.7 51 10.6 93 93 NNW 15 24 29.84 1011 2 3 0.38 9.65
3:02 pm 15:02 Cloudy with Thunderstorms 53 11.7 51 10.6 93 93 N 12 19 29.83 1010 5 8 0.02 0.51
3:06 pm 15:06 Cloudy with Strong Thunderstorms 53 11.7 51 10.6 93 93 NNE 12 19 29.82 1010 2 3 0.02 0.51
3:16 pm 15:16 Cloudy with Thunderstorms 53 11.7 51 10.6 93 93 NE 13 20 29.83 1010 3 5 0.09 2.29
3:35 pm 15:35 Mostly Cloudy 57 13.9 53 11.7 87 87 NE 9 15 29.82 1010 10 16 0.09 2.29
3:53 pm 15:53 Mostly Cloudy 59 15 54 12.2 83 83 NNE 10 17 29.81 1010 10 16 0.09 2.29
4:46 pm 16:46 Mostly Cloudy 60 15.6 52 11.1 75 75 NNW 7 11 29.81 1010 10 16 0.00 0.00
4:53 pm 16:53 Mostly Cloudy 60 15.6 51 10.6 72 72 NNW 9 15 29.82 1010 10 16 0.00 0.00
5:34 pm 17:34 Mostly Cloudy 59 15 51 10.6 75 75 NW 10 17 29.82 1010 10 16 0.00 0.00
5:46 pm 17:46 Cloudy 59 15 51 10.6 75 75 NW 9 15 29.82 1010 10 16 0.00 0.00
5:53 pm 17:53 Cloudy 58 14.4 51 10.6 78 78 WNW 14 22 29.82 1010 10 16 0.00 0.00
6:53 pm 18:53 Cloudy 54 12.2 50 10 87 87 W 17 28 29.83 1010 10 16 0.00 0.00
7:00 pm 19:00 Cloudy 54 12.2 50 10 87 87 WNW 14 22 29.84 1011 10 16 0.00 0.00
7:53 pm 19:53 Mostly Cloudy 54 12.2 50 10 87 87 WNW 18 30 29.85 1011 10 16 0.00 0.00
8:05 pm 20:05 Mostly Cloudy 53 11.7 49 9.4 86 86 WNW 17 28 29.86 1011 10 16 0.00 0.00
8:53 pm 20:53 Cloudy 52 11.1 48 8.9 86 86 NW 10 17 29.85 1011 10 16 0.00 0.00
9:53 pm 21:53 Cloudy 52 11.1 48 8.9 86 86 NNW 12 19 29.85 1011 10 16 0.00 0.00
10:00 pm 22:00 Cloudy 52 11.1 48 8.9 86 86 NNW 10 17 29.87 1011 10 16 0.00 0.00
10:53 pm 22:53 Partly Cloudy 50 10 47 8.3 89 89 NW 7 11 29.85 1011 10 16 0.00 0.00
11:46 pm 23:46 Mostly Cloudy 50 10 47 8.3 89 89 NW 13 20 29.85 1011 10 16 0.00 0.00
11:53 pm 23:53 Mostly Cloudy 50 10 48 8.9 93 93 NW 14 22 29.83 1010 10 16 0.00 0.00

Powered by AerisWeather